{"data":{"norad_id":51805,"epoch":"2026-05-24T22:24:59.086080Z","epoch_age_seconds":81506,"freshness":"FRESH","line1":"1 51805U 22017AP  26144.93401720 -.00000508  00000+0 -13824-4 0  9990","line2":"2 51805  53.2124 346.9235 0001195  92.2506 267.8622 15.08844617235759","mean_motion":15.08844617,"eccentricity":0.0001195,"inclination_deg":53.2124,"raan_deg":346.9235,"arg_perigee_deg":92.2506,"mean_anomaly_deg":267.8622,"bstar":-1.3824e-5,"rev_number":23575,"period_min":95.43726264293,"perigee_km":538.90259165809,"apogee_km":540.55596169821,"semimajor_km":6917.8662766781,"source":"CELESTRAK","updated_at":"2026-05-25T13:38:16.957046Z"}}